Etusivu
METAR-TAF:

METAR-TAF

Lentoasemat :

Southern Wisconsin Regional Airport

Janesville, Wisconsin, Yhdysvallat

Leveyspiiri: 42-37N, Pituuspiiri: 089-02W, korkeus merenpinnasta: 246 m

Tämänhetkinen sää

Tämä raportti tehtiin 25 minuuttia sitten, kello 21.45 UTC
tyyntä
Lämpötila 1°C
Kosteus 59%
Ilmanpaine 1019 hPa
Näkyvyys: 16.1 km
Hajanaisia pilviä 5000 ft:n korkeudessa
Hajonneita pilviä 11000 ft:n korkeudessa

METAR: KJVL 162145Z 00000KT 10SM SCT050 BKN110 01/M06 A3009

Aika: 16:10 (22:10 UTC)


TAF: puuttuu

Säähavainnot ja -ennusteet yli 4000 lentoasemalta (METAR- ja TAF-raportit).

Käytössä olevat sääasemat on merkitty karttaan keltaisilla ja punaisilla pisteillä.

Aseta hiiri pisteen päälle nähdäksesi sääaseman nimen.

Klikkaa sitten nähdäksesi säähavainnot ja -ennusteet.

Kartan vaihtaminen: klikkaa mustalla rastilla varustettuja vihreitä pisteitä, niin voit zoomata sisään; viivalla varustettua vihreää pistettä, niin voit zoomata ulos tai vihreitä nuolia, niin pääset viereisille kartoille.


METAR-TAF: